contact:dominique.lefevre@mio.osupytheas.fr, maurice.libes@osupytheas.fr, didier.mallarino@osupytheas.fr
Project:EMSO http://www.emso-fr.org/EMSO-France
Depth: 2436.0 m
Title:EMSO Ligure Ouest : Data MII capteur CSTAR
DateTime,Latitude,Longitude,Instrument_Serial,Reference_Counts,Signal_Counts,Corrected_Signal_raw_counts,Calculated_Beam_c_inverse_meters,Internal_thermistor_counts
DateTime,Latitude,Longitude,Instrument_Serial,Reference_Counts,Signal_Counts,Corrected_Signal_raw_counts,Calculated_Beam_c_inverse_meters,Internal_thermistor_counts
2023-07-10T00:01:00,42.805,6.029,CST-1368DR,4260,4665,11622,01.182,552
2023-07-10T00:04:02,42.805,6.029,CST-1368DR,4260,4665,11622,01.182,552
2023-07-10T00:07:03,42.805,6.029,CST-1368DR,4260,4665,11620,01.182,552
2023-07-10T00:10:05,42.805,6.029,CST-1368DR,4260,4667,11626,01.180,552
2023-07-10T00:13:06,42.805,6.029,CST-1368DR,4260,4672,11640,01.175,552
2023-07-10T00:16:08,42.805,6.029,CST-1368DR,4260,4672,11638,01.176,552
2023-07-10T00:19:09,42.805,6.029,CST-1368DR,4260,4670,11633,01.178,552
2023-07-10T00:22:11,42.805,6.029,CST-1368DR,4260,4669,11632,01.178,552
2023-07-10T00:25:13,42.805,6.029,CST-1368DR,4260,4673,11642,01.175,552
2023-07-10T00:28:14,42.805,6.029,CST-1368DR,4260,4672,11638,01.176,552
2023-07-10T00:31:16,42.805,6.029,CST-1368DR,4260,4667,11625,01.181,552
2023-07-10T00:34:17,42.805,6.029,CST-1368DR,4260,4665,11622,01.182,552
2023-07-10T00:37:19,42.805,6.029,CST-1368DR,4260,4665,11621,01.182,552
2023-07-10T00:40:20,42.805,6.029,CST-1368DR,4260,4665,11622,01.182,552
2023-07-10T00:43:22,42.805,6.029,CST-1368DR,4260,4666,11624,01.181,552
2023-07-10T00:46:24,42.805,6.029,CST-1368DR,4260,4666,11625,01.181,552
2023-07-10T00:49:25,42.805,6.029,CST-1368DR,4260,4665,11620,01.182,552
2023-07-10T00:52:27,42.805,6.029,CST-1368DR,4260,4668,11630,01.179,552
2023-07-10T00:55:28,42.805,6.029,CST-1368DR,4260,4665,11622,01.182,552
2023-07-10T00:58:30,42.805,6.029,CST-1368DR,4260,4667,11625,01.181,552
2023-07-10T01:01:32,42.805,6.029,CST-1368DR,4260,4667,11627,01.180,552
2023-07-10T01:04:33,42.805,6.029,CST-1368DR,4260,4665,11621,01.182,552
2023-07-10T01:07:35,42.805,6.029,CST-1368DR,4260,4668,11629,01.179,552
2023-07-10T01:10:36,42.805,6.029,CST-1368DR,4260,4663,11616,01.184,552
2023-07-10T01:13:38,42.805,6.029,CST-1368DR,4260,4667,11626,01.180,552
2023-07-10T01:16:39,42.805,6.029,CST-1368DR,4260,4666,11623,01.181,552
2023-07-10T01:19:41,42.805,6.029,CST-1368DR,4260,4665,11621,01.182,552
2023-07-10T01:22:43,42.805,6.029,CST-1368DR,4260,4665,11622,01.182,552
2023-07-10T01:25:44,42.805,6.029,CST-1368DR,4260,4665,11622,01.182,552
2023-07-10T01:28:46,42.805,6.029,CST-1368DR,4260,4665,11621,01.182,552
2023-07-10T01:31:47,42.805,6.029,CST-1368DR,4260,4666,11624,01.181,552
2023-07-10T01:34:49,42.805,6.029,CST-1368DR,4260,4666,11624,01.181,552
2023-07-10T01:37:51,42.805,6.029,CST-1368DR,4260,4662,11615,01.184,552
2023-07-10T01:40:52,42.805,6.029,CST-1368DR,4260,4664,11619,01.183,552
2023-07-10T01:43:54,42.805,6.029,CST-1368DR,4260,4665,11622,01.182,552
2023-07-10T01:46:55,42.805,6.029,CST-1368DR,4260,4666,11624,01.181,552
2023-07-10T01:49:57,42.805,6.029,CST-1368DR,4260,4673,11640,01.175,552
2023-07-10T01:52:58,42.805,6.029,CST-1368DR,4260,4665,11622,01.182,552
2023-07-10T01:56:00,42.805,6.029,CST-1368DR,4260,4665,11620,01.182,552
2023-07-10T01:59:02,42.805,6.029,CST-1368DR,4260,4665,11621,01.182,552
2023-07-10T02:02:03,42.805,6.029,CST-1368DR,4260,4665,11620,01.182,552
2023-07-10T02:05:05,42.805,6.029,CST-1368DR,4260,4664,11619,01.183,552
2023-07-10T02:08:06,42.805,6.029,CST-1368DR,4260,4664,11619,01.183,552
2023-07-10T02:11:08,42.805,6.029,CST-1368DR,4260,4665,11622,01.182,552
2023-07-10T02:14:09,42.805,6.029,CST-1368DR,4260,4664,11620,01.182,552
2023-07-10T02:17:11,42.805,6.029,CST-1368DR,4260,4665,11621,01.182,552
2023-07-10T02:20:13,42.805,6.029,CST-1368DR,4260,4665,11621,01.182,552
2023-07-10T02:23:14,42.805,6.029,CST-1368DR,4260,4664,11619,01.183,552
2023-07-10T02:26:16,42.805,6.029,CST-1368DR,4260,4662,11615,01.184,552
2023-07-10T02:29:17,42.805,6.029,CST-1368DR,4260,4665,11620,01.182,552
2023-07-10T02:32:19,42.805,6.029,CST-1368DR,4260,4664,11620,01.182,552
2023-07-10T02:35:20,42.805,6.029,CST-1368DR,4260,4665,11621,01.182,552
2023-07-10T02:38:22,42.805,6.029,CST-1368DR,4260,4663,11617,01.183,552
2023-07-10T02:41:24,42.805,6.029,CST-1368DR,4260,4663,11617,01.183,552
2023-07-10T02:44:25,42.805,6.029,CST-1368DR,4260,4664,11619,01.183,552
2023-07-10T02:47:27,42.805,6.029,CST-1368DR,4260,4663,11617,01.183,552
2023-07-10T02:50:28,42.805,6.029,CST-1368DR,4260,4665,11622,01.182,552
2023-07-10T02:53:30,42.805,6.029,CST-1368DR,4260,4663,11617,01.183,552
2023-07-10T02:56:32,42.805,6.029,CST-1368DR,4260,4664,11620,01.182,552
2023-07-10T02:59:33,42.805,6.029,CST-1368DR,4260,4663,11617,01.183,552
2023-07-10T03:02:35,42.805,6.029,CST-1368DR,4260,4665,11621,01.182,552
2023-07-10T03:05:36,42.805,6.029,CST-1368DR,4260,4664,11619,01.183,552
2023-07-10T03:08:38,42.805,6.029,CST-1368DR,4260,4663,11617,01.183,552
2023-07-10T03:11:39,42.805,6.029,CST-1368DR,4260,4663,11617,01.183,552
2023-07-10T03:14:41,42.805,6.029,CST-1368DR,4260,4663,11616,01.184,552
2023-07-10T03:17:43,42.805,6.029,CST-1368DR,4260,4661,11612,01.185,552
2023-07-10T03:20:44,42.805,6.029,CST-1368DR,4260,4663,11616,01.184,552
2023-07-10T03:23:46,42.805,6.029,CST-1368DR,4260,4664,11619,01.183,552
2023-07-10T03:26:47,42.805,6.029,CST-1368DR,4260,4663,11615,01.184,552
2023-07-10T03:29:49,42.805,6.029,CST-1368DR,4260,4663,11617,01.183,552
2023-07-10T03:32:50,42.805,6.029,CST-1368DR,4260,4662,11614,01.184,552
2023-07-10T03:35:52,42.805,6.029,CST-1368DR,4260,4662,11615,01.184,552
2023-07-10T03:38:54,42.805,6.029,CST-1368DR,4260,4663,11617,01.183,552
2023-07-10T03:41:55,42.805,6.029,CST-1368DR,4260,4662,11615,01.184,552
2023-07-10T03:44:57,42.805,6.029,CST-1368DR,4260,4662,11614,01.184,552
2023-07-10T03:47:58,42.805,6.029,CST-1368DR,4260,4662,11615,01.184,552
2023-07-10T03:51:00,42.805,6.029,CST-1368DR,4260,4666,11625,01.181,552
2023-07-10T03:54:02,42.805,6.029,CST-1368DR,4260,4669,11631,01.178,552
2023-07-10T03:57:03,42.805,6.029,CST-1368DR,4260,4663,11615,01.184,552
2023-07-10T04:00:05,42.805,6.029,CST-1368DR,4260,4661,11612,01.185,552
2023-07-10T04:03:06,42.805,6.029,CST-1368DR,4260,4671,11637,01.176,552
2023-07-10T04:06:08,42.805,6.029,CST-1368DR,4260,4663,11617,01.183,552
2023-07-10T04:09:09,42.805,6.029,CST-1368DR,4260,4669,11632,01.178,552
2023-07-10T04:12:11,42.805,6.029,CST-1368DR,4260,4671,11636,01.177,552
2023-07-10T04:15:13,42.805,6.029,CST-1368DR,4260,4669,11630,01.179,552
2023-07-10T04:18:14,42.805,6.029,CST-1368DR,4260,4665,11622,01.182,552
2023-07-10T04:21:16,42.805,6.029,CST-1368DR,4260,4671,11636,01.177,552
2023-07-10T04:24:17,42.805,6.029,CST-1368DR,4260,4671,11637,01.176,552
2023-07-10T04:27:19,42.805,6.029,CST-1368DR,4260,4665,11622,01.182,552
2023-07-10T04:30:21,42.805,6.029,CST-1368DR,4260,4665,11622,01.182,552
2023-07-10T04:33:22,42.805,6.029,CST-1368DR,4260,4670,11633,01.178,552
2023-07-10T04:36:24,42.805,6.029,CST-1368DR,4260,4668,11630,01.179,552
2023-07-10T04:39:25,42.805,6.029,CST-1368DR,4260,4669,11632,01.178,552
2023-07-10T04:42:27,42.805,6.029,CST-1368DR,4260,4668,11629,01.179,552
2023-07-10T04:45:28,42.805,6.029,CST-1368DR,4260,4664,11619,01.183,552
2023-07-10T04:48:30,42.805,6.029,CST-1368DR,4260,4663,11617,01.183,552
2023-07-10T04:51:32,42.805,6.029,CST-1368DR,4260,4665,11621,01.182,552
2023-07-10T04:54:33,42.805,6.029,CST-1368DR,4260,4664,11619,01.183,552
2023-07-10T04:57:35,42.805,6.029,CST-1368DR,4260,4664,11619,01.183,552
2023-07-10T05:00:36,42.805,6.029,CST-1368DR,4260,4663,11617,01.183,552
2023-07-10T05:03:38,42.805,6.029,CST-1368DR,4260,4663,11617,01.183,552
2023-07-10T05:06:39,42.805,6.029,CST-1368DR,4260,4662,11613,01.185,552
2023-07-10T05:09:41,42.805,6.029,CST-1368DR,4260,4663,11617,01.183,552
2023-07-10T05:12:43,42.805,6.029,CST-1368DR,4260,4657,11602,01.188,552
2023-07-10T05:15:44,42.805,6.029,CST-1368DR,4260,4663,11617,01.183,552
2023-07-10T05:18:46,42.805,6.029,CST-1368DR,4260,4662,11615,01.184,552
2023-07-10T05:21:47,42.805,6.029,CST-1368DR,4260,4665,11622,01.182,552
2023-07-10T05:24:49,42.805,6.029,CST-1368DR,4260,4663,11617,01.183,552
2023-07-10T05:27:50,42.805,6.029,CST-1368DR,4260,4666,11624,01.181,552
2023-07-10T05:30:52,42.805,6.029,CST-1368DR,4260,4661,11612,01.185,552
2023-07-10T05:33:54,42.805,6.029,CST-1368DR,4260,4665,11620,01.182,552
2023-07-10T05:36:55,42.805,6.029,CST-1368DR,4260,4662,11615,01.184,552
2023-07-10T05:39:57,42.805,6.029,CST-1368DR,4260,4664,11619,01.183,552
2023-07-10T05:42:58,42.805,6.029,CST-1368DR,4260,4663,11616,01.184,552
2023-07-10T05:46:00,42.805,6.029,CST-1368DR,4260,4662,11614,01.184,552
2023-07-10T05:49:02,42.805,6.029,CST-1368DR,4260,4661,11612,01.185,552
2023-07-10T05:52:03,42.805,6.029,CST-1368DR,4260,4663,11616,01.184,552
2023-07-10T05:55:05,42.805,6.029,CST-1368DR,4260,4662,11614,01.184,552
2023-07-10T05:58:06,42.805,6.029,CST-1368DR,4260,4663,11617,01.183,552
2023-07-10T06:01:08,42.805,6.029,CST-1368DR,4260,4663,11617,01.183,552
2023-07-10T06:04:09,42.805,6.029,CST-1368DR,4260,4663,11615,01.184,552
2023-07-10T06:07:11,42.805,6.029,CST-1368DR,4260,4660,11609,01.186,552
2023-07-10T06:10:13,42.805,6.029,CST-1368DR,4260,4662,11614,01.184,552
2023-07-10T06:13:14,42.805,6.029,CST-1368DR,4260,4662,11615,01.184,552
2023-07-10T06:16:16,42.805,6.029,CST-1368DR,4260,4663,11615,01.184,552
2023-07-10T06:19:17,42.805,6.029,CST-1368DR,4260,4663,11617,01.183,552
2023-07-10T06:22:19,42.805,6.029,CST-1368DR,4260,4665,11622,01.182,552
2023-07-10T06:25:20,42.805,6.029,CST-1368DR,4260,4663,11615,01.184,552
2023-07-10T06:28:22,42.805,6.029,CST-1368DR,4260,4663,11616,01.184,552
2023-07-10T06:31:26,42.805,6.029,CST-1368DR,4260,4663,11617,01.183,552
2023-07-10T06:34:28,42.805,6.029,CST-1368DR,4260,4663,11615,01.184,552
2023-07-10T06:37:30,42.805,6.029,CST-1368DR,4260,4664,11619,01.183,552
2023-07-10T06:40:31,42.805,6.029,CST-1368DR,4260,4663,11617,01.183,552
2023-07-10T06:43:33,42.805,6.029,CST-1368DR,4260,4662,11614,01.184,552
2023-07-10T06:46:34,42.805,6.029,CST-1368DR,4260,4662,11614,01.184,552
2023-07-10T06:49:36,42.805,6.029,CST-1368DR,4260,4663,11616,01.184,552
2023-07-10T06:52:37,42.805,6.029,CST-1368DR,4260,4662,11613,01.185,552
2023-07-10T06:55:39,42.805,6.029,CST-1368DR,4260,4663,11616,01.184,552
2023-07-10T06:58:41,42.805,6.029,CST-1368DR,4260,4665,11620,01.182,552
2023-07-10T07:01:42,42.805,6.029,CST-1368DR,4260,4663,11615,01.184,552
2023-07-10T07:04:44,42.805,6.029,CST-1368DR,4260,4661,11612,01.185,552
2023-07-10T07:07:45,42.805,6.029,CST-1368DR,4260,4663,11615,01.184,552
2023-07-10T07:10:47,42.805,6.029,CST-1368DR,4260,4663,11616,01.184,552
2023-07-10T07:13:49,42.805,6.029,CST-1368DR,4260,4661,11611,01.185,552
2023-07-10T07:16:50,42.805,6.029,CST-1368DR,4260,4658,11605,01.187,552
2023-07-10T07:19:52,42.805,6.029,CST-1368DR,4260,4661,11611,01.185,552
2023-07-10T07:22:53,42.805,6.029,CST-1368DR,4260,4661,11612,01.185,552
2023-07-10T07:25:55,42.805,6.029,CST-1368DR,4260,4666,11625,01.181,552
2023-07-10T07:28:56,42.805,6.029,CST-1368DR,4260,4660,11609,01.186,552
2023-07-10T07:31:58,42.805,6.029,CST-1368DR,4260,4660,11609,01.186,552
2023-07-10T07:35:00,42.805,6.029,CST-1368DR,4260,4661,11612,01.185,552
2023-07-10T07:38:01,42.805,6.029,CST-1368DR,4260,4663,11615,01.184,552
2023-07-10T07:41:03,42.805,6.029,CST-1368DR,4260,4661,11611,01.185,552
2023-07-10T07:44:04,42.805,6.029,CST-1368DR,4260,4661,11610,01.186,552
2023-07-10T07:47:06,42.805,6.029,CST-1368DR,4260,4661,11610,01.186,552
2023-07-10T07:50:08,42.805,6.029,CST-1368DR,4260,4659,11607,01.187,552
2023-07-10T07:53:09,42.805,6.029,CST-1368DR,4260,4661,11610,01.186,552
2023-07-10T07:56:11,42.805,6.029,CST-1368DR,4260,4660,11609,01.186,552
2023-07-10T07:59:12,42.805,6.029,CST-1368DR,4260,4660,11609,01.186,552
2023-07-10T08:02:14,42.805,6.029,CST-1368DR,4260,4662,11614,01.184,552
2023-07-10T08:05:15,42.805,6.029,CST-1368DR,4260,4660,11609,01.186,552
2023-07-10T08:08:17,42.805,6.029,CST-1368DR,4260,4663,11615,01.184,552
2023-07-10T08:11:19,42.805,6.029,CST-1368DR,4260,4661,11612,01.185,552
2023-07-10T08:14:20,42.805,6.029,CST-1368DR,4260,4661,11610,01.186,552
2023-07-10T08:17:22,42.805,6.029,CST-1368DR,4260,4658,11605,01.187,552
2023-07-10T08:20:23,42.805,6.029,CST-1368DR,4260,4659,11607,01.187,552
2023-07-10T08:23:25,42.805,6.029,CST-1368DR,4260,4659,11607,01.187,552
2023-07-10T08:26:26,42.805,6.029,CST-1368DR,4260,4661,11610,01.186,552
2023-07-10T08:29:28,42.805,6.029,CST-1368DR,4260,4661,11612,01.185,552
2023-07-10T08:32:29,42.805,6.029,CST-1368DR,4260,4661,11612,01.185,552
2023-07-10T08:35:31,42.805,6.029,CST-1368DR,4260,4661,11611,01.185,552
2023-07-10T08:38:32,42.805,6.029,CST-1368DR,4260,4660,11609,01.186,552
2023-07-10T08:41:34,42.805,6.029,CST-1368DR,4260,4661,11612,01.185,552
2023-07-10T08:44:36,42.805,6.029,CST-1368DR,4260,4661,11612,01.185,552
2023-07-10T08:47:37,42.805,6.029,CST-1368DR,4260,4660,11609,01.186,552
2023-07-10T08:50:39,42.805,6.029,CST-1368DR,4260,4659,11607,01.187,552
2023-07-10T08:53:40,42.805,6.029,CST-1368DR,4260,4660,11609,01.186,552
2023-07-10T08:56:42,42.805,6.029,CST-1368DR,4260,4661,11610,01.186,552
2023-07-10T08:59:43,42.805,6.029,CST-1368DR,4260,4658,11605,01.187,552
2023-07-10T09:02:45,42.805,6.029,CST-1368DR,4260,4659,11605,01.187,552
2023-07-10T09:05:47,42.805,6.029,CST-1368DR,4260,4659,11605,01.187,552
2023-07-10T09:08:48,42.805,6.029,CST-1368DR,4260,4659,11606,01.187,552
2023-07-10T09:11:50,42.805,6.029,CST-1368DR,4260,4659,11607,01.187,552
2023-07-10T09:14:51,42.805,6.029,CST-1368DR,4260,4659,11607,01.187,552
2023-07-10T09:17:53,42.805,6.029,CST-1368DR,4260,4660,11608,01.186,552
2023-07-10T09:20:54,42.805,6.029,CST-1368DR,4260,4661,11611,01.185,552
2023-07-10T09:23:56,42.805,6.029,CST-1368DR,4260,4661,11610,01.186,552
2023-07-10T09:26:58,42.805,6.029,CST-1368DR,4260,4659,11606,01.187,552
2023-07-10T09:29:59,42.805,6.029,CST-1368DR,4260,4659,11607,01.187,552
2023-07-10T09:33:01,42.805,6.029,CST-1368DR,4260,4661,11610,01.186,552
2023-07-10T09:36:02,42.805,6.029,CST-1368DR,4260,4663,11616,01.184,552
2023-07-10T09:39:04,42.805,6.029,CST-1368DR,4260,4658,11604,01.188,552
2023-07-10T09:42:06,42.805,6.029,CST-1368DR,4260,4660,11609,01.186,552
2023-07-10T09:45:07,42.805,6.029,CST-1368DR,4260,4660,11609,01.186,552
2023-07-10T09:48:09,42.805,6.029,CST-1368DR,4260,4660,11609,01.186,552
2023-07-10T09:51:10,42.805,6.029,CST-1368DR,4260,4662,11615,01.184,552
2023-07-10T09:54:12,42.805,6.029,CST-1368DR,4260,4661,11612,01.185,552
2023-07-10T09:57:13,42.805,6.029,CST-1368DR,4260,4662,11615,01.184,552
2023-07-10T10:00:15,42.805,6.029,CST-1368DR,4260,4659,11606,01.187,552
2023-07-10T10:03:17,42.805,6.029,CST-1368DR,4260,4660,11608,01.186,552
2023-07-10T10:06:18,42.805,6.029,CST-1368DR,4260,4661,11612,01.185,552
2023-07-10T10:09:20,42.805,6.029,CST-1368DR,4260,4663,11617,01.183,552
2023-07-10T10:12:21,42.805,6.029,CST-1368DR,4260,4661,11612,01.185,552
2023-07-10T10:15:23,42.805,6.029,CST-1368DR,4260,4660,11609,01.186,552
2023-07-10T10:18:25,42.805,6.029,CST-1368DR,4260,4661,11611,01.185,552
2023-07-10T10:21:26,42.805,6.029,CST-1368DR,4260,4664,11619,01.183,552
2023-07-10T10:24:28,42.805,6.029,CST-1368DR,4260,4659,11607,01.187,552
2023-07-10T10:27:29,42.805,6.029,CST-1368DR,4260,4658,11605,01.187,552
2023-07-10T10:30:32,42.805,6.029,CST-1368DR,4260,4660,11608,01.186,552
2023-07-10T10:33:33,42.805,6.029,CST-1368DR,4260,4661,11610,01.186,552
2023-07-10T10:36:35,42.805,6.029,CST-1368DR,4260,4659,11607,01.187,552
2023-07-10T10:39:37,42.805,6.029,CST-1368DR,4260,4658,11604,01.188,552
2023-07-10T10:42:38,42.805,6.029,CST-1368DR,4260,4659,11606,01.187,552
2023-07-10T10:45:40,42.805,6.029,CST-1368DR,4260,4659,11606,01.187,552
2023-07-10T10:48:41,42.805,6.029,CST-1368DR,4260,4660,11608,01.186,552
2023-07-10T10:51:43,42.805,6.029,CST-1368DR,4260,4661,11610,01.186,552
2023-07-10T10:54:44,42.805,6.029,CST-1368DR,4260,4656,11599,01.190,552
2023-07-10T10:57:46,42.805,6.029,CST-1368DR,4260,4658,11603,01.188,552
2023-07-10T11:00:48,42.805,6.029,CST-1368DR,4260,4660,11608,01.186,552
2023-07-10T11:03:49,42.805,6.029,CST-1368DR,4260,4659,11606,01.187,552
2023-07-10T11:06:51,42.805,6.029,CST-1368DR,4260,4661,11611,01.185,552
2023-07-10T11:09:52,42.805,6.029,CST-1368DR,4260,4660,11608,01.186,552
2023-07-10T11:12:54,42.805,6.029,CST-1368DR,4260,4659,11607,01.187,552
2023-07-10T11:15:55,42.805,6.029,CST-1368DR,4260,4659,11607,01.187,552
2023-07-10T11:18:57,42.805,6.029,CST-1368DR,4260,4662,11614,01.184,552
2023-07-10T11:21:59,42.805,6.029,CST-1368DR,4260,4658,11604,01.188,552
2023-07-10T11:25:00,42.805,6.029,CST-1368DR,4260,4660,11609,01.186,552
2023-07-10T11:28:02,42.805,6.029,CST-1368DR,4260,4659,11607,01.187,552
2023-07-10T11:31:03,42.805,6.029,CST-1368DR,4260,4660,11609,01.186,552
2023-07-10T11:34:05,42.805,6.029,CST-1368DR,4260,4664,11620,01.182,552
2023-07-10T11:37:07,42.805,6.029,CST-1368DR,4260,4665,11620,01.182,552
2023-07-10T11:40:08,42.805,6.029,CST-1368DR,4260,4661,11611,01.185,552
2023-07-10T11:43:10,42.805,6.029,CST-1368DR,4260,4661,11612,01.185,552
2023-07-10T11:46:11,42.805,6.029,CST-1368DR,4260,4663,11617,01.183,552
2023-07-10T11:49:13,42.805,6.029,CST-1368DR,4260,4659,11607,01.187,552
2023-07-10T11:52:14,42.805,6.029,CST-1368DR,4260,4668,11629,01.179,552
2023-07-10T11:55:16,42.805,6.029,CST-1368DR,4260,4660,11608,01.186,552
2023-07-10T11:58:18,42.805,6.029,CST-1368DR,4260,4669,11632,01.178,552
2023-07-10T12:01:19,42.805,6.029,CST-1368DR,4260,4660,11609,01.186,552
2023-07-10T12:04:21,42.805,6.029,CST-1368DR,4260,4661,11612,01.185,552
2023-07-10T12:07:22,42.805,6.029,CST-1368DR,4260,4660,11609,01.186,552
2023-07-10T12:10:24,42.805,6.029,CST-1368DR,4260,4661,11612,01.185,552
2023-07-10T12:13:25,42.805,6.029,CST-1368DR,4260,4662,11614,01.184,552
2023-07-10T12:16:27,42.805,6.029,CST-1368DR,4260,4661,11612,01.185,552
2023-07-10T12:19:29,42.805,6.029,CST-1368DR,4260,4661,11612,01.185,552
2023-07-10T12:22:30,42.805,6.029,CST-1368DR,4260,4668,11630,01.179,552
2023-07-10T12:25:32,42.805,6.029,CST-1368DR,4260,4666,11623,01.181,552
2023-07-10T12:28:33,42.805,6.029,CST-1368DR,4260,4663,11617,01.183,552
2023-07-10T12:31:35,42.805,6.029,CST-1368DR,4260,4662,11613,01.185,552
2023-07-10T12:34:36,42.805,6.029,CST-1368DR,4260,4667,11625,01.181,552
2023-07-10T12:37:38,42.805,6.029,CST-1368DR,4260,4661,11612,01.185,552
2023-07-10T12:40:40,42.805,6.029,CST-1368DR,4260,4665,11621,01.182,552
2023-07-10T12:43:41,42.805,6.029,CST-1368DR,4260,4666,11624,01.181,552
2023-07-10T12:46:43,42.805,6.029,CST-1368DR,4260,4661,11610,01.186,552
2023-07-10T12:49:44,42.805,6.029,CST-1368DR,4260,4660,11609,01.186,552
2023-07-10T12:52:46,42.805,6.029,CST-1368DR,4260,4661,11610,01.186,552
2023-07-10T12:55:48,42.805,6.029,CST-1368DR,4260,4661,11611,01.185,552
2023-07-10T12:58:49,42.805,6.029,CST-1368DR,4260,4662,11613,01.185,552
2023-07-10T13:01:51,42.805,6.029,CST-1368DR,4260,4665,11620,01.182,552
2023-07-10T13:04:52,42.805,6.029,CST-1368DR,4260,4662,11613,01.185,552
2023-07-10T13:07:54,42.805,6.029,CST-1368DR,4260,4660,11608,01.186,552
2023-07-10T13:10:55,42.805,6.029,CST-1368DR,4260,4661,11612,01.185,552
2023-07-10T13:13:57,42.805,6.029,CST-1368DR,4260,4662,11614,01.184,552
2023-07-10T13:16:59,42.805,6.029,CST-1368DR,4260,4661,11610,01.186,552
2023-07-10T13:20:00,42.805,6.029,CST-1368DR,4260,4665,11620,01.182,552
2023-07-10T13:23:02,42.805,6.029,CST-1368DR,4260,4661,11610,01.186,552
2023-07-10T13:26:03,42.805,6.029,CST-1368DR,4260,4661,11611,01.185,552
2023-07-10T13:29:05,42.805,6.029,CST-1368DR,4260,4661,11611,01.185,552
2023-07-10T13:32:06,42.805,6.029,CST-1368DR,4260,4661,11612,01.185,552
2023-07-10T13:35:08,42.805,6.029,CST-1368DR,4260,4663,11617,01.183,552
2023-07-10T13:38:10,42.805,6.029,CST-1368DR,4260,4665,11621,01.182,552
2023-07-10T13:41:11,42.805,6.029,CST-1368DR,4260,4662,11614,01.184,552
2023-07-10T13:44:13,42.805,6.029,CST-1368DR,4260,4663,11617,01.183,552
2023-07-10T13:47:14,42.805,6.029,CST-1368DR,4260,4660,11609,01.186,552
2023-07-10T13:50:16,42.805,6.029,CST-1368DR,4260,4663,11616,01.184,552
2023-07-10T13:53:18,42.805,6.029,CST-1368DR,4260,4661,11610,01.186,552
2023-07-10T13:56:19,42.805,6.029,CST-1368DR,4259,4659,11608,01.186,552
2023-07-10T13:59:21,42.805,6.029,CST-1368DR,4260,4664,11620,01.182,552
2023-07-10T14:02:22,42.805,6.029,CST-1368DR,4259,4665,11623,01.181,552
2023-07-10T14:05:24,42.805,6.029,CST-1368DR,4260,4661,11611,01.185,552
2023-07-10T14:08:25,42.805,6.029,CST-1368DR,4260,4665,11621,01.182,552
2023-07-10T14:11:27,42.805,6.029,CST-1368DR,4260,4664,11620,01.182,552
2023-07-10T14:14:29,42.805,6.029,CST-1368DR,4260,4660,11608,01.186,552
2023-07-10T14:17:30,42.805,6.029,CST-1368DR,4260,4661,11612,01.185,552
2023-07-10T14:20:32,42.805,6.029,CST-1368DR,4260,4662,11613,01.185,552
2023-07-10T14:23:33,42.805,6.029,CST-1368DR,4259,4661,11615,01.184,552
2023-07-10T14:26:35,42.805,6.029,CST-1368DR,4259,4662,11617,01.183,552
2023-07-10T14:29:36,42.805,6.029,CST-1368DR,4259,4661,11615,01.184,552
2023-07-10T14:32:39,42.805,6.029,CST-1368DR,4259,4660,11612,01.185,552
2023-07-10T14:35:40,42.805,6.029,CST-1368DR,4259,4663,11618,01.183,552
2023-07-10T14:38:42,42.805,6.029,CST-1368DR,4259,4662,11616,01.184,552
2023-07-10T14:41:43,42.805,6.029,CST-1368DR,4260,4663,11615,01.184,552
2023-07-10T14:44:45,42.805,6.029,CST-1368DR,4259,4662,11617,01.183,552
2023-07-10T14:47:46,42.805,6.029,CST-1368DR,4259,4661,11613,01.185,552
2023-07-10T14:50:48,42.805,6.029,CST-1368DR,4259,4661,11613,01.185,552
2023-07-10T14:53:50,42.805,6.029,CST-1368DR,4259,4659,11610,01.186,552
2023-07-10T14:56:51,42.805,6.029,CST-1368DR,4260,4662,11615,01.184,552
2023-07-10T14:59:53,42.805,6.029,CST-1368DR,4260,4661,11610,01.186,552
2023-07-10T15:02:54,42.805,6.029,CST-1368DR,4259,4660,11612,01.185,552
2023-07-10T15:05:56,42.805,6.029,CST-1368DR,4259,4663,11619,01.183,552
2023-07-10T15:08:57,42.805,6.029,CST-1368DR,4259,4660,11611,01.185,552
2023-07-10T15:11:59,42.805,6.029,CST-1368DR,4259,4663,11619,01.183,552
2023-07-10T15:15:01,42.805,6.029,CST-1368DR,4259,4660,11611,01.185,552
2023-07-10T15:18:02,42.805,6.029,CST-1368DR,4259,4663,11619,01.183,552
2023-07-10T15:21:04,42.805,6.029,CST-1368DR,4259,4660,11611,01.185,552
2023-07-10T15:24:05,42.805,6.029,CST-1368DR,4259,4661,11615,01.184,552
2023-07-10T15:27:07,42.805,6.029,CST-1368DR,4259,4662,11617,01.183,552
2023-07-10T15:30:08,42.805,6.029,CST-1368DR,4259,4663,11619,01.183,552
2023-07-10T15:33:10,42.805,6.029,CST-1368DR,4260,4662,11614,01.184,552
2023-07-10T15:36:12,42.805,6.029,CST-1368DR,4259,4662,11616,01.184,552
2023-07-10T15:39:13,42.805,6.029,CST-1368DR,4259,4662,11616,01.184,552
2023-07-10T15:42:15,42.805,6.029,CST-1368DR,4259,4661,11614,01.184,552
2023-07-10T15:45:16,42.805,6.029,CST-1368DR,4259,4663,11619,01.183,552
2023-07-10T15:48:18,42.805,6.029,CST-1368DR,4259,4659,11610,01.186,552
2023-07-10T15:51:20,42.805,6.029,CST-1368DR,4259,4661,11614,01.184,552
2023-07-10T15:54:21,42.805,6.029,CST-1368DR,4259,4660,11611,01.185,552
2023-07-10T15:57:23,42.805,6.029,CST-1368DR,4259,4661,11615,01.184,552
2023-07-10T16:00:24,42.805,6.029,CST-1368DR,4259,4671,11639,01.176,552
2023-07-10T16:03:26,42.805,6.029,CST-1368DR,4259,4662,11617,01.183,552
2023-07-10T16:06:27,42.805,6.029,CST-1368DR,4259,4661,11615,01.184,552
2023-07-10T16:09:29,42.805,6.029,CST-1368DR,4259,4661,11614,01.184,552
2023-07-10T16:12:31,42.805,6.029,CST-1368DR,4259,4661,11614,01.184,552
2023-07-10T16:15:32,42.805,6.029,CST-1368DR,4259,4660,11611,01.185,552
2023-07-10T16:18:34,42.805,6.029,CST-1368DR,4259,4661,11614,01.184,552
2023-07-10T16:21:35,42.805,6.029,CST-1368DR,4259,4660,11611,01.185,552
2023-07-10T16:24:37,42.805,6.029,CST-1368DR,4259,4660,11611,01.185,552
2023-07-10T16:27:39,42.805,6.029,CST-1368DR,4259,4661,11615,01.184,552
2023-07-10T16:30:41,42.805,6.029,CST-1368DR,4259,4660,11611,01.185,552
2023-07-10T16:33:43,42.805,6.029,CST-1368DR,4259,4660,11611,01.185,552
2023-07-10T16:36:44,42.805,6.029,CST-1368DR,4259,4660,11611,01.185,552